Regional Weather Roundup
Issued by NWS

Home | Current Version | Previous Version | Graphics & Text | Print | Product List | Glossary Off
Versions: 1 2 3 4 5 6 7 8 9 10 11 12 13 14 15 16 17 18 19 20 21 22 23 24 25 26 27 28 29 30 31 32 33 34 35 36 37 38 39 40 41 42 43 44 45 46 47 48 49 50

000
ASUS43 KDMX 151506
RWRIA

WEATHER ROUNDUP FOR IOWA
NATIONAL WEATHER SERVICE DES MOINES IA
900 AM CST FRI DEC 15 2017

NOTE: "FAIR" INDICATES FEW OR NO CLOUDS BELOW 12,000 FEET WITH NO
SIGNIFICANT WEATHER AND/OR OBSTRUCTIONS TO VISIBILITY.

* - THESE STATIONS ARE NOT NWS STATIONS...THUS NOT UNDER NWS
QUALITY CONTROL.  THEY ALSO DO NOT REPORT WEATHER SUCH
AS PRECIPITATION OR FOG.

IAZ001>003-012>014-020>022-031>034-043>046-151600-
   NORTHWEST IOWA

CITY           SKY/WX    TMP DP  RH WIND       PRES   REMARKS
CARROLL *      CLOUDY    34  25  69 W14       29.96F WCI  24
CHEROKEE *     MOCLDY    32  28  83 SW8       29.94S WCI  25
DENISON *      CLOUDY    32  25  74 SW12      29.99F WCI  23
LE MARS *      CLOUDY    32  27  80 SW9       29.93F WCI  24
ORANGE CITY *  MOCLDY    34  30  86 W12       29.91F WCI  25
SHELDON *      CLOUDY    32  28  86 W14       29.89F WCI  22
SIOUX CITY     CLOUDY    33  25  72 W8        29.97F WCI  26
SPENCER        CLOUDY    32  28  85 W12       29.90F WCI  23
STORM LAKE *   MOSUNNY   32  27  80 W14       29.93S WCI  22
$$

IAZ055>058-069>071-079>083-090>094-151600-
   SOUTHWEST IOWA

CITY           SKY/WX    TMP DP  RH WIND       PRES   REMARKS
ATLANTIC *     CLOUDY    34  25  69 SW15      30.01F WCI  24
AUDUBON *      CLOUDY    34  27  75 SW13G18   30.00S WCI  25
CLARINDA *     CLOUDY    34  27  75 W10       30.09F WCI  26
COUNCIL BLFS * MOSUNNY   32  27  80 SW10      30.03F WCI  24
CRESTON *      CLOUDY    32  25  74 SW14      30.03F WCI  22
HARLAN  *      CLOUDY    34  25  69 SW15      30.03F WCI  24
LAMONI         CLOUDY    33  21  61 W13       30.04F WCI  24
RED OAK *      MOSUNNY   34  27  75 SW13      30.06F WCI  25
SHENANDOAH *   MOSUNNY   34  27  75 SW9       30.08F WCI  26
$$

IAZ047>049-059>061-072>074-084-151600-
   CENTRAL IOWA

CITY           SKY/WX    TMP DP  RH WIND       PRES   REMARKS
AMES           CLOUDY    31  27  85 SW10      29.97F WCI  22
ANKENY *       CLOUDY    32  25  74 SW7       30.00F WCI  26
BOONE *        CLOUDY    32  27  80 W10G18    29.95F WCI  24
CHARITON *     CLOUDY    32  23  69 W8        30.02F WCI  25
DES MOINES     CLOUDY    33  24  69 SW9       30.00F WCI  25
GRINNELL*      CLOUDY    28  25  88 SW13      29.99F WCI  17
KNOXVILLE *    CLOUDY    30  21  69 SW9       30.00F WCI  22
MARSHALLTOWN   CLOUDY    29  24  82 SW13      29.95F WCI  19
NEWTON *       CLOUDY    28  25  86 SW12      29.98F WCI  18
PELLA *        CLOUDY    30  24  77 W8        30.02F WCI  23
PERRY *        CLOUDY    33  24  70 W18       29.98F WCI  22
$$

IAZ004>006-015-016-023>025-035-036-151600-
   NORTH CENTRAL IOWA

CITY           SKY/WX    TMP DP  RH WIND       PRES   REMARKS
ALGONA *       CLOUDY    32  30  93 W12       29.91S WCI  23
CLARION *      CLOUDY    30  30 100 W13       29.92F WCI  20
ESTHERVILLE    CLOUDY    30  27  88 W10       29.89S WCI  21
FORT DODGE *   CLOUDY    31  26  82 W14       29.93F WCI  21
MASON CITY     CLOUDY    29  25  85 W13       29.91S WCI  19
FOREST CITY *  CLOUDY    32  28  86 W10       29.90R WCI  24
WEBSTER CITY * CLOUDY    32  25  74 W14       29.92F WCI  22
IOWA FALLS *   CLOUDY    31  26  84 SW10      29.94F WCI  22
$$

IAZ007>011-017>019-026>030-037>042-050>054-066-151600-
   NORTHEAST IOWA

CITY           SKY/WX    TMP DP  RH WIND       PRES   REMARKS
CEDAR RAPIDS   FLURRIES  26  22  84 SW8       29.97F WCI  18
CHARLES CITY * FLURRIES  28  28 100 SW10      29.90F WCI  19
CLINTON *      CLOUDY    27  20  75 W13       29.98F WCI  16
DECORAH *      CLOUDY    25  23  93 SW6G12    29.88F WCI  18
DUBUQUE        PTSUNNY   26  20  77 W14       29.92F WCI  14
MONTICELLO *   MIX PCPN  27  21  80 W12       29.96S WCI  16
OELWEIN *      LGT SNOW  25  25 100 SW9       29.93S WCI  15
WATERLOO       CLOUDY    27  22  81 SW9       29.94F WCI  18
$$

IAZ064-065-067-068-078-151600-
   EAST CENTRAL IOWA

CITY           SKY/WX    TMP DP  RH WIND       PRES   REMARKS
DAVENPORT      CLOUDY    26  19  74 W14       30.02S WCI  14
IOWA CITY      CLOUDY    28  22  78 W12       30.02F WCI  18
MT. PLEASANT * PTSUNNY   29  26  88 SW10      30.04S WCI  20
MUSCATINE *    SUNNY     28  23  80 W13       30.04S WCI  18
QUAD CITIES    CLOUDY    29  20  69 W10       30.01S WCI  20
$$

IAZ062-063-075>077-085>089-095>099-151600-
   SOUTHEAST IOWA

CITY           SKY/WX    TMP DP  RH WIND       PRES   REMARKS
BURLINGTON     SUNNY     30  24  78 W8        30.05R WCI  22
FAIRFIELD *    CLOUDY    28  25  86 SW8       30.03F WCI  20
FORT MADISON * MOSUNNY   28  25  86 SW6       30.06S WCI  22
KEOKUK *       MOSUNNY   30  27  86 W8        30.06F WCI  23
OSKALOOSA *    CLOUDY    28  25  86 W9        30.03F WCI  19
OTTUMWA        CLOUDY    29  23  78 SW8       30.03F WCI  21
WASHINGTON *   CLOUDY    28  27  93 W12       30.03F WCI  18
$$

ABBREVIATIONS USED IN REMARKS
   TC - TEMPERATURES IN CELSIUS
  WCI - WIND CHILL INDEX
   HX - HEAT INDEX
  VSB - VISIBILITY
$$





USA.gov is the U.S. government's official web portal to all federal, state and local government web resources and services.